Wetbulb
53.28 53.34 53.89 54.56 54.91 55.30 55.32 55.62 55.36 55.18 55.27 54.73 54.10 54.25 55.38 56.49 56.58 52.81 49.70 53.05 52.11 50.73 52.32 54.96 55.80 53.01 53.34 50.12 46.78 50.85 52.50 53.35 50.89 47.37 46.71 46.32 49.94 50.81 48.21 49.36 46.96 46.44 46.69 46.58 47.51 45.45 43.97 58.87 58.49 54.61 58.60 59.50 59.20 59.82
53.12 53.57 54.02 54.48 54.83 54.97 55.44 55.60 55.38 55.38 55.64 54.74 53.97 54.22 55.28 56.35 56.46 55.46 49.12 52.99 55.77 51.56 51.58 55.96 57.19 58.51 57.80 57.26 51.08 50.73 51.49 52.22 53.67 49.94 48.67 50.17 50.17 49.96 46.74 45.54 51.70 47.52 50.22 48.31 50.33 51.01 55.36 56.67 57.07 60.18 61.22 60.74 60.73 62.31
53.26 53.55 53.98 54.30 54.51 54.85 55.28 55.38 55.40 55.42 55.58 54.61 53.84 54.11 55.20 56.13 55.79 55.32 49.65 51.03 51.64 53.45 54.56 54.37 54.11 59.13 59.06 59.14 59.20 50.71 52.70 54.43 53.36 54.31 53.95 51.91 50.59 51.80 48.48 47.93 51.04 53.72 56.02 51.55 51.69 53.99 54.98 59.04 59.89 60.76 60.58 60.51 62.63 63.10
53.49 53.72 53.86 54.24 54.51 54.89 54.89 55.21 55.23 55.32 55.34 54.71 53.79 54.16 55.51 55.72 55.83 56.05 51.82 52.23 52.62 52.40 50.46 51.17 59.83 56.56 61.28 60.78 57.89 58.74 56.67 56.48 54.61 54.50 52.41 50.82 50.96 54.58 52.50 53.28 51.20 54.72 56.13 53.17 53.08 56.06 57.78 58.62 59.97 60.05 61.68 62.00 61.52 61.47
53.68 53.56 53.78 54.13 54.25 54.28 54.55 54.73 55.13 55.36 55.03 54.69 54.53 54.80 55.88 55.72 54.99 54.59 50.71 51.70 55.08 50.19 49.90 50.09 54.59 58.39 60.48 58.39 59.25 59.26 57.27 54.16 54.07 53.32 51.95 51.21 53.31 53.99 52.45 52.86 50.32 53.63 54.44 52.79 50.71 54.82 54.85 54.25 55.67 57.12 57.07 59.50 60.22 59.77
53.63 54.11 53.95 54.01 54.11 54.04 54.49 54.67 55.01 55.21 54.69 54.59 54.59 55.00 55.13 55.12 54.18 50.61 48.51 53.70 55.78 55.68 51.57 47.22 54.11 55.99 58.76 57.48 56.67 56.49 57.25 55.25 54.40 53.72 51.82 53.43 53.72 53.75 50.00 48.76 54.18 55.05 54.58 54.24 52.69 53.89 54.86 56.37 58.30 58.66 56.45 56.96 57.94 57.18
53.87 53.74 53.94 54.08 54.27 54.40 54.22 54.53 54.71 54.53 54.26 54.06 54.32 54.83 54.49 54.22 52.41 49.03 49.72 53.06 54.39 55.33 49.98 50.43 49.64 54.67 58.38 53.75 53.07 54.20 57.24 55.89 54.30 51.44 51.58 50.95 51.75 51.86 50.16 49.17 55.52 55.69 57.98 58.40 58.08 56.85 56.26 57.68 56.41 58.33 59.15 59.56 58.01 58.16
53.43 53.38 53.97 54.04 54.18 54.44 54.53 54.57 54.55 54.22 53.77 53.65 54.30 54.28 53.90 53.14 51.52 46.92 53.47 53.10 55.43 52.91 54.18 50.36 49.29 50.17 53.32 50.16 49.50 52.90 54.22 53.86 53.82 51.60 50.55 50.60 51.68 49.47 50.50 53.60 56.27 57.20 57.50 57.52 58.28 58.34 57.37 57.83 59.27 59.10 59.35 58.77 59.47 59.17
52.92 53.23 53.49 54.00 54.14 54.00 54.21 53.90 53.90 53.48 53.40 54.06 54.16 53.92 52.44 50.83 48.02 50.50 58.19 57.22 56.68 53.13 51.53 52.58 46.63 44.62 52.68 50.05 50.51 51.07 52.62 49.45 53.10 48.63 49.75 50.07 47.02 45.96 52.69 54.77 56.10 56.56 55.61 55.93 57.80 58.62 58.96 58.22 58.18 59.26 60.21 60.60 59.62 60.64
52.92 52.94 53.09 53.44 53.62 53.58 53.41 53.40 53.21 53.46 53.65 53.96 52.27 48.57 46.52 50.30 56.84 57.15 54.87 52.91 53.44 53.82 54.02 50.70 52.99 49.57 50.13 48.51 47.95 49.14 49.76 49.01 45.79 48.73 50.71 47.26 49.04 53.85 55.69 56.18 56.52 56.73 56.89 56.88 55.36 54.73 55.72 55.96 56.71 57.49 58.57 59.77 59.52 60.17
52.97 52.65 52.58 52.64 52.82 52.72 52.82 53.54 53.84 53.44 53.52 50.31 47.24 48.13 52.86 57.13 54.12 51.61 46.19 47.01 49.41 47.69 52.55 53.01 52.85 50.88 52.68 48.93 47.45 49.63 47.31 48.18 45.43 48.03 47.80 45.15 48.13 54.16 56.57 56.71 57.25 57.34 57.34 57.18 57.06 56.85 56.81 56.60 56.53 56.83 57.62 59.35 60.37 60.90
52.81 52.95 52.47 52.97 53.28 53.66 53.78 53.48 53.35 51.83 49.91 50.12 51.64 54.21 54.00 51.28 49.22 45.12 43.45 45.60 46.30 46.39 53.24 52.68 53.08 53.46 56.08 54.07 50.81 51.07 47.85 48.27 45.13 50.33 47.78 47.80 52.28 56.12 56.84 57.71 57.38 57.61 58.26 58.31 58.65 58.11 58.60 58.74 57.91 57.61 57.55 58.14 59.14 60.66
53.25 52.99 53.11 53.27 53.56 53.57 53.57 53.22 53.55 53.12 52.63 54.00 51.64 49.42 47.77 44.71 40.23 40.91 38.76 41.63 43.32 49.85 53.54 53.66 51.82 53.39 53.75 54.10 50.05 48.68 46.26 45.72 51.04 47.62 48.48 51.13 55.44 56.63 56.42 57.35 57.85 58.39 59.22 59.19 59.02 59.14 59.18 58.97 59.45 58.73 57.83 58.85 59.18 61.17
53.14 53.26 53.38 53.29 53.31 53.21 53.13 53.27 53.22 52.15 50.08 48.89 46.11 36.59 42.03 41.53 42.36 43.38 43.95 45.16 49.25 53.35 53.53 53.35 50.78 51.47 51.32 50.12 49.01 46.69 48.38 49.20 45.19 44.47 48.43 53.92 54.83 55.64 56.77 57.53 57.68 57.11 57.68 57.93 57.83 58.32 58.41 58.41 58.34 58.74 58.84 58.73 58.49 59.62
52.87 52.99 52.97 52.77 53.15 52.99 52.88 52.90 53.08 51.42 49.23 48.46 46.60 39.80 42.42 46.96 48.02 48.41 49.94 51.93 53.47 54.23 52.76 51.39 52.58 51.67 48.63 48.23 48.39 47.22 46.03 44.75 47.43 48.83 52.06 55.28 56.37 55.85 56.12 56.77 56.69 57.05 56.97 57.13 57.15 57.62 58.03 58.38 57.85 57.58 58.57 58.89 59.38 60.11
53.32 52.89 51.49 53.65 53.69 53.41 53.32 53.33 52.74 52.47 52.31 50.46 48.45 47.78 49.55 48.67 48.31 49.77 52.09 51.42 53.06 52.97 53.49 51.99 48.48 46.58 45.09 48.01 45.99 45.51 46.22 45.71 49.67 53.18 55.29 55.94 55.92 56.67 56.96 58.19 58.31 57.69 57.23 56.98 57.47 58.19 58.34 57.75 57.70 57.96 58.37 59.38 59.91 60.02
53.02 50.13 52.53 53.00 53.02 53.36 53.25 51.55 53.04 52.13 50.54 50.21 49.25 52.06 51.26 50.84 49.89 51.64 52.59 51.37 52.58 51.81 50.00 47.36 45.64 47.01 46.92 44.60 45.58 50.33 47.76 50.54 55.24 55.41 56.16 56.97 56.71 56.93 57.65 58.29 58.75 58.95 57.91 57.60 57.78 58.11 58.29 59.32 59.35 58.32 57.09 58.18 58.57 58.57
51.17 51.90 53.10 53.37 53.33 53.91 53.73 52.27 51.55 50.92 49.12 49.70 48.59 50.93 52.28 52.45 51.18 51.92 53.73 52.93 51.67 51.01 50.69 47.12 49.13 46.78 46.17 45.82 46.67 50.24 52.32 54.96 55.82 56.46 56.62 57.23 57.45 57.75 58.36 57.04 58.09 58.24 57.59 57.80 57.82 58.24 58.36 58.20 57.59 57.34 59.22 59.58 57.99 58.25
52.41 53.19 53.45 53.80 53.33 50.28 50.70 52.82 52.69 47.97 49.18 50.24 52.41 52.82 53.02 53.31 54.73 54.19 55.13 54.46 54.51 54.38 52.24 50.47 48.98 48.96 50.14 52.84 52.84 54.04 54.50 53.39 53.88 54.75 55.80 57.03 57.57 57.28 57.51 58.04 58.29 57.47 56.80 56.72 57.33 57.75 57.72 58.41 58.65 59.58 57.85 58.83 56.42 57.83
52.37 52.93 53.94 53.92 53.79 50.36 50.52 51.23 54.87 49.98 48.35 50.03 51.27 50.86 52.19 52.69 54.32 52.44 52.39 52.01 52.43 50.42 47.23 47.12 47.24 48.85 49.68 51.81 55.04 54.17 54.19 55.12 54.16 53.51 53.94 54.39 55.20 55.73 55.75 55.89 56.47 56.76 57.40 57.16 57.60 55.48 57.92 58.14 58.22 57.69 58.02 57.56 57.00 56.40
52.37 53.75 53.94 53.54 51.26 50.23 51.23 52.16 50.65 51.30 50.86 49.59 51.93 51.91 51.15 52.36 49.06 48.19 47.31 50.41 47.57 46.14 46.21 47.45 47.82 48.95 50.07 51.54 54.93 54.99 55.38 55.90 54.20 53.79 52.90 52.45 54.08 55.34 56.20 56.96 57.37 57.50 56.88 56.66 56.84 56.96 55.50 56.42 56.92 57.53 56.73 57.24 56.66 56.64
53.01 55.46 51.45 51.50 50.23 53.69 52.80 54.72 51.52 53.02 51.47 51.31 50.96 51.68 49.34 47.49 45.77 45.52 46.00 45.29 45.60 46.63 48.36 48.29 45.49 46.61 47.55 48.70 51.01 52.63 53.96 55.14 55.28 55.16 52.90 53.43 53.68 54.43 55.42 55.98 56.00 55.38 56.06 56.10 56.60 56.48 56.16 56.44 56.56 56.31 56.63 57.00 55.50 55.38
53.61 53.60 52.58 54.42 50.50 45.45 49.26 55.34 50.99 51.49 48.24 48.40 49.79 46.51 46.53 45.44 45.72 46.93 43.38 46.21 46.81 49.35 48.33 45.78 47.70 50.22 48.51 49.70 50.70 52.28 53.68 54.38 54.49 54.70 55.14 55.78 56.10 56.56 55.66 55.80 55.46 54.43 54.60 55.34 56.60 56.48 55.94 53.50 54.73 56.31 56.05 56.13 56.10 56.18
54.56 52.39 50.96 49.65 48.86 45.06 51.65 49.42 50.88 48.82 48.29 46.88 45.46 43.85 44.22 44.70 46.60 44.59 41.78 43.19 47.40 48.89 47.07 47.63 48.43 48.29 50.27 52.28 53.37 54.35 53.55 54.45 54.65 55.02 56.14 55.42 54.62 54.64 54.74 54.87 54.79 55.30 56.79 56.81 54.69 54.32 54.98 55.94 53.25 55.56 55.76 55.62 55.34 55.40
43.91 42.60 47.02 39.87 49.47 49.04 48.13 47.94 48.20 47.34 45.11 44.90 43.60 44.32 43.17 46.41 43.17 42.04 41.33 44.09 46.47 46.78 47.63 48.79 48.83 48.05 47.40 48.71 50.25 50.81 52.20 53.20 51.92 51.75 54.49 55.28 54.49 54.36 54.02 54.26 54.14 54.51 56.25 54.73 54.09 54.59 54.87 55.32 55.78 55.30 55.10 54.44 54.17 55.30
37.51 48.72 44.56 47.72 49.18 48.42 48.00 46.31 46.40 46.32 45.74 44.27 43.60 44.49 46.01 43.52 41.84 40.50 42.75 45.43 46.35 47.12 47.88 48.19 47.89 48.05 48.74 50.05 48.84 48.03 48.40 51.49 50.53 50.86 50.46 52.14 53.59 52.90 52.02 52.40 51.63 51.99 54.83 54.80 54.39 54.33 54.55 55.05 55.14 54.91 54.75 53.16 47.71 53.49
42.45 45.68 49.12 51.86 49.77 50.11 47.55 48.83 47.76 45.51 43.80 44.03 43.30 43.50 46.07 40.57 38.30 43.36 46.39 48.65 47.95 49.47 50.76 51.04 50.24 49.15 48.93 49.92 52.07 52.52 52.16 51.82 51.58 52.00 50.87 51.03 52.10 53.64 53.49 52.26 50.48 52.31 54.99 55.62 55.15 54.16 53.36 55.08 54.82 54.99 54.83 54.73 55.01 54.83
47.90 48.64 45.02 47.36 47.32 48.50 45.81 45.88 46.01 45.50 45.88 45.81 45.58 44.46 44.69 43.44 41.37 46.91 47.99 50.64 51.08 50.60 50.50 51.23 51.61 50.91 50.61 50.86 47.18 46.99 45.89 47.85 50.68 50.84 49.17 49.65 49.00 49.05 49.04 53.21 54.01 49.40 53.73 54.89 54.94 53.65 55.26 55.90 55.63 55.36 55.12 54.40 55.43 52.94
46.96 49.77 48.68 45.49 46.74 46.57 48.07 45.69 45.56 46.96 49.15 47.73 45.03 43.88 44.78 47.74 49.24 49.62 50.32 51.16 51.47 50.77 49.45 49.55 50.98 51.65 48.36 45.87 45.72 45.84 45.27 44.80 43.69 42.15 41.63 40.91 41.89 43.92 46.27 46.22 47.75 50.45 51.78 52.14 46.44 46.39 48.08 49.01 49.57 49.32 50.13 53.52 49.73 47.39
47.63 49.09 46.49 46.38 46.10 46.06 48.99 49.99 49.10 50.19 49.36 49.38 48.84 47.76 48.26 49.45 51.79 53.70 53.26 52.22 51.50 51.36 51.85 50.91 49.35 45.90 43.50 42.84 41.79 42.48 43.21 43.03 41.78 40.58 39.66 39.33 40.21 42.70 43.81 44.89 46.18 47.81 49.18 51.29 50.22 49.47 47.54 49.67 48.35 51.48 49.47 47.37 46.71 45.24
50.52 49.26 48.50 47.94 47.20 49.65 49.69 50.17 49.42 49.50 50.01 48.62 48.49 46.76 46.67 48.31 49.94 51.96 52.07 51.45 50.95 49.07 47.19 47.00 46.01 45.93 45.03 43.44 42.10 41.42 40.70 42.29 42.50 42.40 42.06 41.41 40.72 41.43 42.28 42.87 44.50 45.12 45.35 48.64 48.15 47.83 47.91 47.59 47.00 46.59 46.52 46.02 46.20 44.86
49.66 48.72 48.28 45.99 46.90 49.78 49.75 47.51 47.45 47.93 47.42 47.09 46.04 47.41 47.55 46.98 45.43 48.28 50.81 50.18 48.02 46.90 46.69 45.98 45.19 45.05 45.35 45.69 45.26 44.58 42.38 41.83 41.17 41.55 41.22 40.54 39.52 39.68 40.09 40.41 42.19 44.09 45.71 46.80 46.88 46.23 46.53 45.53 45.19 45.18 44.75 43.85 42.74 43.02
49.34 48.34 48.24 47.78 46.93 47.08 48.30 47.80 46.60 45.89 46.53 45.63 46.51 47.61 47.73 47.18 45.42 48.50 51.86 51.88 49.84 48.98 47.59 47.13 47.17 47.40 47.30 46.44 45.75 44.55 42.74 42.41 40.83 39.67 39.04 37.91 37.37 37.68 38.04 38.23 41.77 43.50 43.43 43.67 43.42 44.26 43.81 43.29 42.33 42.50 41.63 40.99 41.01 41.39
MSLP
1016.64 1016.35 1016.06 1015.80 1015.55 1015.31 1015.17 1015.17 1015.21 1015.24 1015.33 1015.42 1015.57 1015.65 1015.65 1015.63 1015.80 1016.30 1016.00 1015.55 1015.56 1014.19 1012.29 1011.57 1011.07 1010.57 1009.87 1009.40 1008.51 1005.85 1004.21 1002.78 1002.30 1002.72 1003.20 1003.47 1003.33 1003.81 1004.76 1005.69 1006.00 1006.41 1007.00 1007.53 1007.58 1007.33 1006.16 1004.55 1003.98 1004.61 1005.63 1005.65 1006.87 1007.43
1015.64 1015.35 1015.06 1014.79 1014.57 1014.38 1014.21 1014.13 1014.28 1014.43 1014.56 1014.80 1015.03 1015.17 1015.23 1015.29 1015.37 1015.61 1015.98 1015.00 1014.51 1014.54 1012.37 1011.25 1010.43 1009.49 1009.45 1008.49 1008.90 1007.19 1005.93 1005.11 1003.80 1003.65 1003.55 1003.74 1004.13 1004.76 1006.00 1007.03 1006.95 1007.40 1006.87 1006.97 1007.17 1006.61 1005.67 1004.97 1004.79 1005.06 1005.29 1005.35 1006.33 1006.54
1014.54 1014.25 1014.01 1013.77 1013.59 1013.43 1013.38 1013.35 1013.47 1013.67 1013.87 1014.21 1014.45 1014.66 1014.79 1014.84 1014.92 1015.16 1015.52 1015.35 1014.95 1014.02 1011.78 1010.46 1008.16 1006.26 1006.95 1006.78 1007.16 1007.95 1005.53 1004.98 1004.41 1004.33 1003.71 1003.89 1004.44 1004.88 1006.67 1007.59 1007.54 1007.08 1006.74 1006.73 1006.70 1006.79 1005.95 1005.39 1005.15 1004.91 1004.74 1006.01 1006.53 1006.28
1013.35 1013.09 1012.88 1012.68 1012.57 1012.57 1012.60 1012.65 1012.79 1012.98 1013.25 1013.65 1013.95 1014.17 1014.31 1014.39 1014.53 1014.69 1015.19 1015.07 1015.09 1014.27 1012.34 1008.69 1006.53 1006.29 1004.79 1004.91 1005.46 1006.03 1005.69 1005.11 1004.61 1003.93 1003.83 1004.40 1004.59 1004.97 1006.51 1006.78 1007.68 1007.01 1006.56 1006.63 1007.11 1006.79 1006.25 1005.93 1005.76 1005.42 1005.30 1005.45 1005.65 1005.99
1012.29 1012.03 1011.81 1011.67 1011.67 1011.71 1011.81 1011.92 1012.10 1012.31 1012.75 1013.17 1013.54 1013.70 1013.83 1014.02 1014.19 1014.51 1014.85 1014.71 1014.68 1014.95 1012.76 1010.11 1007.59 1004.56 1003.98 1004.21 1004.21 1004.74 1005.42 1005.42 1005.17 1004.26 1004.48 1004.98 1004.73 1005.14 1006.81 1007.37 1007.96 1006.91 1006.02 1006.49 1007.38 1006.75 1006.55 1006.90 1006.28 1005.67 1005.67 1006.04 1006.06 1005.97
1011.37 1011.02 1010.84 1010.75 1010.67 1010.63 1010.82 1011.13 1011.42 1011.81 1012.33 1012.83 1013.17 1013.33 1013.49 1013.71 1014.09 1014.69 1014.53 1013.73 1013.86 1014.21 1013.39 1010.97 1006.78 1004.51 1003.42 1003.86 1003.96 1004.72 1005.11 1005.07 1005.11 1004.63 1004.94 1004.99 1004.39 1004.95 1007.72 1008.90 1008.19 1006.84 1006.09 1006.29 1006.71 1006.60 1006.66 1006.55 1006.31 1006.19 1006.20 1006.14 1006.09 1006.32
1010.55 1010.31 1010.05 1009.81 1009.60 1009.52 1009.93 1010.45 1010.92 1011.47 1012.08 1012.51 1012.82 1013.03 1013.25 1013.52 1013.95 1014.05 1013.49 1013.38 1013.62 1013.82 1013.31 1011.04 1007.86 1004.14 1002.92 1003.71 1004.35 1004.64 1004.68 1004.96 1005.03 1005.31 1005.35 1005.29 1005.04 1005.38 1007.56 1008.84 1008.03 1007.57 1006.78 1006.70 1006.65 1006.72 1007.14 1007.18 1007.12 1006.72 1006.65 1006.61 1006.69 1006.95
1010.03 1009.79 1009.45 1009.21 1009.11 1009.08 1009.50 1010.05 1010.71 1011.31 1011.88 1012.23 1012.54 1012.80 1013.11 1013.53 1013.87 1013.57 1012.22 1012.50 1013.07 1013.13 1012.50 1010.83 1007.58 1005.14 1002.97 1004.34 1004.70 1004.38 1004.95 1005.23 1005.33 1005.59 1005.51 1005.91 1005.83 1006.63 1008.31 1008.17 1007.83 1007.37 1007.02 1007.17 1007.27 1007.35 1007.72 1007.78 1007.62 1007.77 1007.45 1007.47 1007.77 1008.11
1009.79 1009.67 1009.41 1009.17 1009.13 1009.24 1009.61 1010.13 1010.71 1011.23 1011.66 1011.99 1012.38 1012.81 1013.36 1013.53 1013.36 1012.23 1011.90 1012.17 1012.29 1012.72 1011.33 1010.09 1008.00 1005.51 1003.29 1003.79 1004.10 1004.51 1004.87 1005.97 1005.81 1005.90 1005.99 1006.40 1007.26 1007.72 1007.83 1007.98 1007.87 1007.59 1007.68 1008.11 1008.08 1008.21 1008.37 1008.75 1009.01 1008.91 1008.84 1008.90 1009.00 1009.17
1009.70 1009.69 1009.61 1009.59 1009.59 1009.77 1010.04 1010.35 1010.76 1011.15 1011.49 1012.02 1012.59 1012.88 1012.30 1011.76 1011.35 1011.60 1011.97 1011.89 1011.69 1011.16 1010.68 1009.45 1007.51 1005.71 1003.83 1004.36 1004.49 1004.99 1005.29 1005.99 1006.32 1006.12 1005.97 1006.91 1008.22 1007.79 1007.49 1007.54 1007.51 1007.65 1007.85 1008.08 1008.64 1009.27 1009.41 1009.79 1009.86 1009.85 1009.87 1009.87 1009.87 1009.91
1009.56 1009.63 1009.73 1009.82 1009.92 1010.04 1010.18 1010.40 1010.69 1011.24 1011.80 1012.16 1012.08 1011.39 1011.16 1011.13 1011.26 1011.28 1011.50 1011.23 1011.10 1010.54 1010.00 1007.97 1007.01 1005.72 1003.53 1003.81 1004.27 1004.61 1005.36 1005.70 1006.32 1006.35 1006.61 1007.76 1008.97 1008.56 1008.16 1007.83 1007.70 1007.91 1008.20 1008.53 1008.79 1009.22 1009.56 1009.89 1010.13 1010.25 1010.29 1010.22 1010.12 1010.07
1009.70 1009.70 1009.83 1009.91 1010.04 1010.17 1010.29 1010.59 1011.00 1011.23 1011.36 1011.33 1011.04 1010.69 1010.71 1010.79 1010.96 1011.05 1010.78 1011.21 1010.28 1009.51 1008.07 1007.02 1005.81 1004.87 1003.47 1003.27 1004.29 1004.83 1005.21 1005.54 1005.90 1005.81 1006.97 1008.53 1008.97 1008.57 1008.37 1008.23 1008.19 1008.28 1008.40 1008.59 1008.68 1009.31 1009.57 1009.81 1010.01 1010.17 1010.29 1010.30 1010.24 1010.15
1009.81 1009.81 1009.92 1009.97 1010.13 1010.34 1010.69 1011.03 1011.18 1011.31 1011.01 1010.58 1010.48 1010.41 1010.12 1010.33 1010.03 1010.09 1010.09 1010.03 1009.66 1008.61 1007.14 1006.53 1005.82 1004.29 1003.59 1003.27 1004.63 1004.85 1005.43 1005.85 1005.66 1006.47 1007.95 1008.81 1008.83 1008.75 1008.62 1008.42 1008.50 1008.49 1008.67 1008.91 1009.36 1009.60 1009.84 1010.11 1010.20 1010.33 1010.42 1010.27 1010.18 1010.01
1010.15 1010.17 1010.26 1010.35 1010.53 1010.79 1011.03 1011.05 1011.34 1011.59 1011.53 1010.22 1009.78 1009.86 1009.52 1009.17 1008.51 1008.17 1007.92 1007.35 1006.89 1006.24 1006.25 1005.65 1004.34 1004.05 1004.07 1004.31 1004.95 1005.57 1005.77 1005.75 1006.63 1007.54 1008.62 1009.21 1009.29 1009.13 1008.85 1008.93 1008.99 1009.27 1009.35 1009.53 1009.78 1009.88 1010.10 1010.26 1010.44 1010.43 1010.39 1010.28 1010.18 1010.03
1010.51 1010.59 1010.65 1010.78 1010.79 1010.91 1011.13 1011.39 1011.74 1011.91 1011.23 1009.77 1009.27 1008.64 1008.04 1007.26 1006.82 1006.37 1006.76 1006.76 1005.69 1005.49 1005.43 1004.81 1004.57 1004.53 1005.02 1005.31 1005.55 1006.05 1006.33 1006.86 1007.50 1008.43 1009.09 1009.33 1009.39 1009.29 1009.41 1009.49 1009.65 1009.81 1009.96 1010.10 1010.15 1010.28 1010.35 1010.37 1010.50 1010.47 1010.32 1010.12 1009.96 1009.89
1010.81 1010.80 1010.86 1010.76 1010.83 1010.92 1010.95 1011.17 1011.25 1011.08 1010.02 1009.14 1008.53 1007.69 1006.96 1006.81 1006.40 1006.03 1005.99 1005.90 1005.63 1005.39 1005.13 1005.11 1005.63 1005.98 1006.10 1005.98 1006.30 1006.71 1007.05 1007.85 1008.52 1008.81 1009.31 1009.47 1009.74 1009.83 1009.86 1010.00 1010.13 1010.14 1010.26 1010.38 1010.40 1010.42 1010.43 1010.46 1010.49 1010.40 1010.25 1010.08 1009.86 1009.78
1010.78 1010.84 1010.61 1010.75 1010.77 1010.73 1010.70 1010.74 1010.02 1009.47 1008.71 1007.93 1007.44 1006.93 1006.57 1006.32 1006.26 1006.09 1006.19 1006.23 1006.23 1006.06 1005.76 1005.47 1006.10 1007.05 1006.53 1006.72 1007.44 1007.76 1008.16 1008.43 1008.72 1009.19 1009.46 1009.52 1009.83 1010.07 1010.17 1010.27 1010.40 1010.47 1010.55 1010.56 1010.59 1010.57 1010.57 1010.47 1010.34 1010.29 1010.31 1010.06 1009.96 1009.69
1010.74 1010.83 1010.83 1010.71 1010.60 1010.58 1010.31 1010.22 1009.62 1008.33 1007.55 1007.09 1006.91 1006.74 1006.42 1006.41 1006.23 1006.42 1006.67 1006.39 1006.27 1006.49 1006.38 1005.45 1005.69 1006.97 1007.99 1008.56 1009.37 1009.33 1008.99 1009.06 1009.23 1009.47 1009.77 1009.94 1010.12 1010.11 1010.24 1010.51 1010.55 1010.57 1010.63 1010.68 1010.67 1010.71 1010.63 1010.37 1010.19 1010.10 1009.95 1009.94 1009.91 1009.89
1010.74 1010.65 1010.53 1010.58 1010.57 1010.67 1010.14 1009.02 1009.07 1008.28 1007.61 1007.41 1007.05 1006.80 1006.73 1006.79 1007.06 1006.91 1006.99 1006.46 1005.91 1005.69 1006.02 1007.24 1008.51 1009.60 1010.15 1010.44 1010.50 1010.31 1010.24 1010.08 1010.13 1010.25 1010.33 1010.27 1010.31 1010.43 1010.55 1010.65 1010.64 1010.62 1010.61 1010.75 1010.81 1010.86 1010.86 1010.60 1010.29 1010.10 1010.19 1010.11 1010.23 1010.36
1010.09 1010.03 1009.91 1009.97 1010.19 1009.85 1009.33 1008.51 1008.29 1008.13 1007.83 1007.78 1007.58 1007.41 1007.56 1007.24 1007.61 1007.48 1007.53 1007.25 1007.09 1007.84 1009.41 1010.77 1011.59 1011.98 1011.98 1011.78 1011.48 1011.26 1011.07 1010.74 1010.48 1010.91 1011.27 1011.11 1010.87 1010.77 1010.77 1010.78 1010.78 1010.72 1010.88 1010.98 1011.05 1011.03 1010.98 1010.91 1010.74 1010.59 1010.48 1010.65 1010.86 1010.80
1009.56 1009.11 1009.19 1009.81 1009.95 1009.58 1008.65 1008.08 1007.87 1007.86 1008.07 1008.02 1007.87 1007.71 1007.93 1007.97 1008.38 1008.66 1008.74 1008.73 1009.14 1011.39 1012.39 1012.75 1012.93 1012.90 1012.62 1012.40 1012.07 1011.73 1011.51 1011.32 1011.33 1011.42 1011.58 1011.50 1011.20 1011.07 1010.99 1010.99 1011.04 1010.99 1011.19 1011.40 1011.51 1011.47 1011.34 1011.26 1011.11 1010.91 1010.91 1011.08 1011.08 1011.03
1009.21 1008.91 1009.32 1009.57 1009.28 1008.57 1008.31 1007.78 1007.85 1008.07 1008.13 1008.26 1008.26 1008.31 1008.59 1009.25 1010.03 1010.77 1011.41 1012.20 1013.15 1013.43 1013.34 1013.51 1013.59 1013.49 1013.24 1012.95 1012.63 1012.21 1011.95 1011.65 1011.51 1011.41 1011.41 1011.41 1011.51 1011.49 1011.44 1011.39 1011.42 1011.54 1011.58 1011.69 1011.64 1011.66 1011.62 1011.39 1011.17 1011.12 1011.13 1011.27 1011.25 1011.24
1008.76 1008.66 1008.71 1008.57 1008.61 1008.09 1008.36 1007.53 1007.61 1007.80 1008.01 1008.14 1008.19 1008.83 1009.45 1010.14 1010.94 1011.19 1012.63 1013.62 1014.08 1014.15 1014.06 1013.99 1013.74 1013.47 1013.30 1012.99 1012.69 1012.31 1011.98 1011.86 1011.75 1011.59 1011.51 1011.47 1011.43 1011.45 1011.56 1011.66 1011.69 1011.82 1011.95 1011.90 1011.70 1011.80 1011.86 1011.57 1011.47 1011.49 1011.49 1011.49 1011.53 1011.51
1008.75 1008.88 1008.68 1008.50 1008.30 1007.99 1007.35 1007.45 1007.25 1007.55 1007.83 1008.40 1009.21 1010.07 1010.67 1011.03 1011.57 1012.52 1013.71 1014.21 1014.23 1014.05 1013.93 1013.83 1013.62 1013.42 1013.17 1012.92 1012.71 1012.41 1012.20 1011.90 1011.77 1011.59 1011.49 1011.49 1011.73 1011.90 1011.93 1012.01 1011.97 1011.97 1011.94 1011.97 1011.97 1012.10 1012.06 1012.01 1011.92 1011.93 1011.93 1011.93 1011.92 1011.87
1009.85 1009.49 1009.28 1008.74 1008.19 1007.91 1007.57 1007.41 1007.58 1007.99 1008.72 1009.40 1010.12 1010.87 1011.28 1011.37 1012.45 1013.48 1014.03 1014.12 1013.91 1013.76 1013.68 1013.67 1013.53 1013.45 1013.28 1013.02 1012.65 1012.35 1012.07 1012.05 1012.15 1012.08 1011.71 1011.59 1011.81 1012.05 1012.21 1012.24 1012.18 1012.11 1012.05 1012.18 1012.34 1012.33 1012.31 1012.25 1012.17 1012.16 1012.22 1012.27 1012.25 1012.11
1010.36 1009.55 1009.45 1008.92 1008.50 1008.19 1008.03 1008.02 1008.22 1008.67 1009.22 1010.02 1010.56 1010.97 1011.26 1012.00 1013.10 1013.90 1014.03 1013.97 1013.96 1013.71 1013.55 1013.56 1013.66 1013.57 1013.32 1013.11 1012.83 1012.40 1012.20 1012.01 1012.06 1011.90 1011.59 1011.41 1011.66 1011.89 1012.25 1012.43 1012.44 1012.33 1012.08 1012.10 1012.16 1012.23 1012.24 1012.12 1012.09 1012.14 1012.26 1012.28 1012.27 1012.24
1010.67 1010.10 1009.51 1008.85 1008.77 1008.57 1008.71 1008.68 1008.69 1009.10 1009.57 1010.13 1010.68 1011.01 1011.28 1012.17 1013.23 1013.66 1013.58 1013.50 1013.43 1013.06 1012.93 1013.17 1013.42 1013.59 1013.45 1012.89 1012.45 1012.17 1011.88 1011.75 1011.79 1011.43 1011.38 1011.49 1011.62 1011.69 1011.86 1012.05 1012.05 1011.96 1011.89 1011.98 1012.08 1012.02 1011.92 1011.87 1011.96 1012.04 1012.13 1012.17 1012.15 1012.13
1010.63 1010.27 1010.03 1009.64 1009.29 1008.95 1009.05 1009.14 1009.35 1009.58 1010.01 1010.23 1010.72 1011.01 1011.37 1011.85 1012.83 1012.96 1012.76 1012.44 1012.30 1012.57 1012.74 1012.67 1012.97 1013.01 1013.03 1012.90 1012.52 1012.13 1011.88 1011.62 1011.27 1011.69 1011.83 1012.13 1012.28 1012.22 1012.09 1011.97 1011.90 1011.72 1011.71 1011.74 1011.80 1011.89 1011.71 1011.59 1011.64 1011.66 1011.89 1012.04 1012.00 1011.90
1010.61 1010.23 1009.91 1009.76 1009.46 1009.32 1009.33 1009.45 1009.62 1009.68 1009.68 1010.05 1010.58 1011.19 1011.58 1011.63 1011.67 1011.68 1011.89 1011.90 1012.22 1012.64 1012.82 1012.73 1012.61 1012.65 1013.01 1012.82 1012.79 1012.82 1012.92 1012.85 1012.80 1013.29 1013.61 1013.76 1013.55 1013.32 1012.93 1012.53 1012.21 1011.86 1011.62 1011.47 1011.45 1011.64 1011.74 1011.59 1011.63 1011.66 1011.71 1012.15 1012.36 1012.25
1010.42 1010.15 1010.09 1009.91 1009.70 1009.60 1009.49 1009.27 1009.41 1009.35 1009.48 1009.79 1010.19 1010.76 1011.18 1011.45 1011.46 1011.38 1011.51 1011.77 1012.02 1012.05 1012.05 1012.10 1012.21 1012.63 1013.08 1013.38 1013.77 1013.83 1013.76 1013.77 1013.83 1014.06 1014.31 1014.50 1014.57 1014.30 1013.74 1013.24 1012.75 1012.11 1011.57 1011.25 1011.82 1011.78 1011.49 1011.39 1011.54 1011.80 1012.08 1012.51 1012.67 1012.73
1010.17 1010.15 1010.00 1009.87 1009.79 1009.65 1009.56 1009.56 1009.55 1009.56 1009.77 1010.11 1010.44 1010.87 1011.11 1011.20 1011.19 1011.08 1011.14 1011.01 1011.15 1011.72 1011.59 1011.93 1012.43 1012.61 1013.19 1013.61 1013.68 1013.97 1014.37 1014.37 1014.23 1014.31 1014.34 1014.42 1014.41 1014.37 1014.13 1013.66 1013.17 1012.64 1012.29 1012.15 1012.26 1012.35 1012.40 1012.49 1012.67 1012.81 1012.95 1013.13 1013.21 1013.22
1009.78 1009.68 1009.78 1009.96 1010.03 1009.97 1009.77 1010.11 1010.17 1010.36 1010.63 1010.75 1010.85 1010.85 1011.03 1011.25 1011.47 1011.23 1010.72 1010.66 1011.11 1011.55 1011.92 1012.15 1012.47 1012.85 1012.90 1013.13 1013.36 1013.59 1013.85 1014.36 1014.58 1014.65 1014.71 1014.78 1014.70 1014.46 1014.14 1013.86 1013.48 1013.05 1012.75 1012.76 1012.82 1012.90 1012.91 1013.09 1013.36 1013.53 1013.67 1013.76 1013.80 1013.79
1009.56 1009.73 1009.77 1009.93 1010.05 1010.13 1010.14 1010.28 1010.45 1010.69 1010.72 1010.97 1010.91 1010.94 1011.12 1011.19 1011.31 1011.17 1010.75 1010.52 1010.98 1011.40 1011.74 1011.88 1012.11 1012.31 1012.58 1012.88 1013.35 1013.77 1014.07 1014.37 1014.51 1014.61 1014.73 1014.81 1014.77 1014.56 1014.35 1014.18 1013.96 1013.76 1013.57 1013.59 1013.59 1013.54 1013.63 1013.70 1013.83 1013.93 1014.00 1014.03 1014.03 1014.04
Wind_Speed
18 19 19 20 20 19 19 18 17 15 16 14 13 12 13 9 8 5 4 3 3 4 8 8 8 10 5 3 3 7 9 6 4 5 3 2 3 2 6 2 2 4 5 1 4 4 2 3 5 7 5 8 10 6
19 20 19 20 19 18 17 17 16 15 15 15 13 12 11 10 9 8 3 4 4 5 6 14 19 23 20 22 5 5 5 3 4 4 1 3 3 4 3 2 4 3 5 5 5 7 3 4 1 3 3 19 10 7
21 20 20 20 18 17 15 14 15 15 15 15 14 13 11 9 9 8 3 2 2 3 8 9 13 18 8 18 14 3 4 3 6 1 3 2 6 4 4 2 2 3 4 5 4 5 4 7 1 4 6 11 10 12
21 20 20 18 18 15 14 14 14 14 15 14 13 12 11 9 10 7 3 3 2 4 4 9 5 8 10 11 11 11 7 5 5 2 3 3 5 5 3 6 2 5 2 4 5 4 5 10 7 5 8 8 8 11
18 18 18 17 15 16 16 15 14 13 14 13 12 10 11 8 8 3 2 4 3 1 4 7 15 13 14 8 11 6 4 3 3 3 4 1 2 6 3 6 5 3 4 5 4 3 7 3 2 6 11 7 7 9
17 15 14 15 17 17 15 14 14 15 13 11 10 9 10 9 8 2 3 4 6 5 3 5 6 7 7 9 6 4 4 3 3 3 0 1 2 7 6 3 7 5 7 4 5 3 5 5 6 7 9 7 8 9
12 13 13 14 15 14 14 12 14 15 12 11 8 9 9 10 3 4 1 2 2 3 3 5 6 7 10 4 1 2 1 2 2 1 3 1 4 6 5 4 5 2 8 8 6 6 9 9 4 7 7 8 8 7
10 9 9 7 6 8 12 13 15 13 11 9 8 9 8 8 2 5 4 9 5 2 3 3 7 4 3 4 2 2 1 2 2 2 2 2 4 4 4 3 5 5 9 10 9 7 5 7 11 10 9 9 12 10
5 5 4 3 5 9 11 13 12 11 10 10 10 12 4 1 3 4 9 10 3 3 1 3 3 5 1 3 2 3 4 2 3 3 1 5 3 2 9 8 8 5 6 6 8 9 10 10 8 10 11 10 9 7
2 0 3 6 8 10 9 11 10 10 11 14 4 3 4 5 5 4 2 4 5 4 4 5 3 5 5 2 1 4 1 5 3 5 3 5 1 3 5 6 8 8 8 8 9 8 8 8 8 8 8 6 6 6
2 2 4 5 6 8 8 10 13 15 10 2 3 3 1 6 2 1 3 2 1 3 4 5 5 4 2 6 4 2 4 2 4 5 6 2 2 2 5 8 7 8 9 9 9 8 8 8 6 6 6 6 5 5
2 2 3 4 5 5 8 12 14 3 3 3 2 2 2 3 3 2 2 1 4 6 5 4 6 6 3 4 5 3 3 3 3 3 5 3 3 4 6 8 7 9 9 9 9 10 9 9 7 7 6 6 5 3
5 5 5 6 9 8 9 11 6 9 6 3 4 3 3 3 4 6 6 5 3 4 2 5 7 2 1 5 4 4 5 2 2 4 3 3 3 4 7 6 7 8 9 10 9 8 8 7 7 6 5 6 7 5
7 7 6 6 7 8 8 7 1 5 2 3 4 2 4 4 5 6 5 4 4 3 4 7 2 4 1 5 2 5 2 3 3 3 3 3 4 5 6 5 10 7 8 8 8 7 7 7 5 6 6 5 5 6
7 8 8 6 6 6 7 7 7 1 4 3 2 3 6 5 4 5 4 3 4 2 2 3 4 4 4 5 3 4 2 2 3 3 4 3 5 7 7 6 7 7 6 6 4 5 5 5 4 5 6 7 6 5
3 1 2 3 7 7 6 6 5 4 3 3 4 3 4 1 4 1 2 2 4 5 3 1 4 4 4 4 4 3 4 2 3 3 3 4 5 6 7 7 6 5 5 4 3 3 3 4 4 6 6 7 5 3
3 0 4 4 4 4 4 2 3 4 4 4 4 4 3 2 1 2 3 2 1 1 2 2 6 3 2 3 4 4 3 3 7 4 3 5 6 6 6 6 6 5 5 4 3 4 4 5 5 5 7 4 5 3
1 3 4 4 2 3 2 3 3 3 3 2 1 3 2 2 2 2 1 2 0 4 3 1 5 6 5 5 4 4 4 3 3 5 4 4 5 5 4 3 3 3 2 3 3 4 5 7 6 5 2 2 2 4
1 4 8 7 2 1 3 3 3 3 2 2 2 3 2 2 2 2 2 4 2 2 3 5 8 4 4 3 3 4 4 3 2 1 2 3 3 3 1 1 1 1 2 3 4 3 2 4 3 3 2 3 2 3
10 12 12 9 5 2 4 3 2 1 3 3 3 4 3 2 1 6 8 7 7 5 7 6 4 3 3 4 4 3 3 4 4 6 4 4 4 3 2 1 2 2 3 5 4 6 4 4 4 4 4 5 4 3
5 1 7 7 3 4 3 1 1 2 2 3 3 2 2 2 8 7 7 7 11 5 3 2 3 3 5 4 3 3 4 5 3 3 2 2 4 3 3 4 4 4 4 3 3 3 4 2 2 2 4 4 4 4
4 4 3 3 3 5 2 0 2 1 2 0 1 0 4 4 4 4 3 5 3 2 2 2 2 3 4 4 5 4 4 5 4 2 3 2 2 2 3 2 4 3 4 3 2 2 3 3 2 3 4 4 4 4
8 3 2 3 2 4 1 2 1 2 2 0 2 4 4 4 3 3 5 3 2 2 1 2 3 4 3 4 4 3 3 3 2 1 1 3 3 3 4 4 4 4 3 3 2 3 3 5 6 4 3 3 2 3
3 2 3 3 0 3 1 1 1 2 3 4 5 4 4 2 2 4 4 1 1 2 2 3 2 1 0 1 2 1 3 3 1 3 3 5 4 3 4 3 4 4 2 3 4 4 4 4 5 5 4 4 5 4
5 6 2 6 2 3 4 3 4 4 4 5 4 3 2 3 4 4 3 3 4 3 3 3 3 3 2 1 1 2 2 3 3 2 2 3 3 3 4 3 3 2 2 4 3 3 2 2 3 4 4 4 5 5
2 2 3 4 4 4 4 3 3 3 3 3 3 1 2 4 4 2 1 1 2 2 3 2 2 3 2 1 2 3 3 1 2 1 1 4 4 4 4 3 1 3 1 2 2 1 2 0 2 3 2 2 2 3
4 4 4 3 1 2 3 3 3 5 4 3 1 1 1 4 3 1 1 2 3 4 4 3 3 2 2 4 4 3 4 4 5 4 1 3 4 3 3 3 3 3 2 2 3 3 2 3 3 3 3 1 3 3
2 3 3 6 3 2 2 2 3 2 2 2 3 2 3 3 4 4 5 6 7 1 3 3 3 3 3 4 1 5 6 6 6 5 6 7 6 8 8 5 5 4 1 3 4 4 4 4 3 3 4 3 2 3
2 4 2 4 3 2 3 2 2 1 2 2 3 3 2 1 5 4 2 3 3 2 3 4 5 1 2 4 6 6 6 7 10 11 8 4 5 6 7 5 6 4 5 5 4 3 4 1 3 2 5 6 3 3
1 2 2 3 3 3 2 2 1 0 2 3 4 3 3 2 2 3 2 3 5 6 6 5 5 7 5 6 4 5 5 5 5 5 4 4 2 4 5 6 6 8 8 3 5 3 8 7 7 6 7 5 4 5
1 1 1 1 2 1 2 3 3 4 4 5 3 4 3 3 1 3 4 4 4 4 4 7 5 5 6 5 4 5 4 4 6 7 5 4 5 5 5 5 5 5 5 4 5 6 7 8 6 6 7 8 7 6
1 2 3 3 3 3 4 4 3 4 3 3 2 3 4 4 3 4 3 4 5 5 4 6 6 3 4 5 4 5 8 4 4 4 6 3 4 5 5 5 6 6 6 6 6 6 9 8 6 6 7 8 8 8
4 3 2 3 3 1 1 4 2 2 2 2 2 4 4 5 3 4 1 3 5 6 5 5 5 5 8 8 7 6 7 5 7 8 7 5 5 7 5 5 5 5 7 6 7 7 8 9 7 8 7 7 7 7
Wind_Direction
284 283 282 281 280 276 270 260 253 253 246 244 248 255 269 266 220 165 258 244 230 265 287 278 278 286 326 256 295 303 336 347 2 64 110 230 89 47 78 56 96 107 102 56 82 83 255 342 10 77 208 57 72 51
282 281 280 279 277 276 270 259 244 243 234 233 241 246 257 260 225 180 255 258 264 237 283 305 278 260 243 245 273 304 242 261 278 56 39 107 84 79 132 61 9 36 170 167 147 202 270 328 45 111 65 113 104 135
280 279 277 277 274 270 263 250 239 240 224 223 232 240 248 241 238 193 208 293 352 271 278 239 254 265 216 226 212 212 296 343 318 157 207 170 87 104 92 146 111 281 218 112 99 22 339 36 44 96 100 102 166 220
279 276 274 272 271 260 255 243 238 241 213 214 227 234 240 223 232 203 180 204 178 277 263 271 303 255 245 256 188 196 241 313 270 237 113 93 106 111 211 128 98 216 170 140 65 25 67 23 18 43 72 83 85 90
282 275 271 272 264 255 247 241 233 223 199 206 218 233 221 215 218 179 195 223 190 301 303 297 312 260 243 208 169 183 219 283 282 352 67 114 135 84 42 61 341 284 165 114 192 242 125 232 351 59 60 61 57 73
283 279 272 266 261 255 232 229 222 193 189 197 208 224 204 200 151 119 261 190 193 183 282 289 285 275 215 169 173 200 234 235 214 114 338 312 331 98 91 81 258 323 62 94 147 162 116 134 64 53 61 52 57 61
286 284 278 274 266 245 203 208 195 177 179 186 206 203 200 174 144 214 238 72 93 160 224 279 282 262 166 122 215 184 238 220 113 342 27 108 27 74 98 147 223 138 92 69 56 75 38 31 360 4 50 44 62 75
296 305 303 273 260 204 181 181 167 164 174 185 198 184 172 155 334 302 248 196 154 231 249 252 260 331 119 162 192 187 147 29 339 175 12 75 356 69 63 203 127 94 74 50 48 70 105 62 43 29 41 49 50 43
298 329 348 47 139 130 136 143 151 165 176 176 163 132 110 196 210 236 147 147 164 252 222 257 236 208 68 157 162 28 107 48 301 87 170 82 339 115 178 166 135 134 110 120 73 60 58 60 51 40 48 41 51 36
266 277 94 117 128 131 147 155 162 173 153 136 132 181 207 202 181 131 177 187 207 195 212 236 269 261 113 121 85 96 57 170 126 240 88 78 359 307 136 133 125 114 110 109 86 66 65 56 56 46 50 59 64 45
110 139 148 141 148 158 171 170 140 121 120 177 213 226 115 153 143 158 189 78 204 135 232 241 208 256 284 137 163 177 171 149 110 249 107 66 55 259 171 118 115 107 102 109 120 122 117 112 89 65 40 34 46 40
99 162 177 190 172 151 143 138 144 138 186 217 300 137 150 179 162 113 48 95 244 182 231 214 218 213 235 112 97 325 106 55 171 169 82 73 236 200 132 120 118 104 117 98 85 86 80 71 63 53 34 16 9 4
85 104 129 139 140 142 138 146 100 22 332 212 185 184 153 225 127 178 172 208 204 215 264 237 265 192 311 66 68 85 76 202 69 61 103 190 165 131 128 116 102 82 100 96 90 89 86 72 53 53 14 348 352 345
91 98 105 107 110 120 132 159 120 25 298 254 162 183 179 175 236 192 187 214 210 203 260 241 109 92 131 68 115 83 245 77 68 94 127 173 153 118 98 93 96 99 86 86 99 92 82 71 49 8 349 327 329 309
101 98 103 101 130 143 147 157 164 149 268 261 151 238 222 225 232 228 182 224 211 191 15 338 43 75 37 81 55 94 72 100 73 143 151 158 129 101 90 88 94 92 90 87 89 78 77 66 26 333 327 319 315 295
360 4 66 146 147 157 172 182 189 213 242 255 228 256 251 142 270 256 251 50 1 338 333 124 103 68 45 113 89 149 119 100 177 120 147 128 105 100 91 84 82 86 99 99 82 61 30 0 311 296 317 329 328 354
314 206 199 192 229 272 250 243 248 219 220 233 239 225 255 161 148 56 37 344 306 312 22 95 85 222 177 79 56 27 140 165 131 118 120 119 105 101 89 70 57 59 55 45 33 6 327 315 310 316 321 305 328 9
49 172 190 214 297 320 249 204 259 275 265 269 50 326 40 53 48 71 339 279 118 124 253 124 113 53 38 57 22 332 32 74 94 113 111 94 92 86 81 97 80 64 27 350 326 325 325 314 298 279 261 203 3 16
233 195 204 213 211 258 262 230 206 291 314 320 18 13 357 46 109 280 263 301 270 280 51 39 47 45 58 37 20 21 23 38 103 100 84 82 125 125 122 126 191 287 311 323 332 325 338 355 36 54 50 24 38 47
266 237 220 207 195 232 231 228 224 259 35 353 13 7 33 357 349 41 46 23 28 51 41 47 40 30 20 355 9 18 11 12 65 65 49 16 25 62 26 333 303 313 59 48 58 44 25 18 9 20 46 63 64 35
295 229 144 158 216 218 277 205 329 75 48 55 312 38 124 35 46 30 30 5 40 43 68 54 33 354 339 337 343 10 23 28 44 105 173 340 335 23 53 51 71 71 78 53 53 16 21 338 322 70 63 78 52 43
266 151 132 186 252 193 270 251 86 59 61 53 294 3 53 56 56 38 92 57 57 1 15 345 334 330 329 341 330 353 335 359 9 4 358 83 49 55 63 53 75 71 66 51 69 53 7 3 58 74 73 66 61 59
294 153 253 214 303 54 81 351 101 172 130 192 40 39 31 43 48 49 70 56 63 9 32 251 284 275 275 302 332 320 315 329 340 344 99 106 92 82 77 56 78 80 68 10 46 66 42 14 42 68 64 59 52 38
19 310 309 315 246 308 25 289 217 88 36 53 39 46 29 55 59 64 77 40 272 289 333 350 343 358 180 176 105 341 333 320 20 44 94 98 84 55 85 70 65 53 55 95 66 50 34 35 48 46 42 46 34 29
35 311 66 320 273 342 352 16 43 44 53 48 74 67 355 54 61 53 16 327 337 338 352 0 9 28 70 315 352 341 336 53 64 35 265 132 121 78 67 60 55 51 46 69 43 47 26 22 65 76 56 50 40 27
57 311 68 344 341 32 356 39 37 85 98 61 61 132 69 83 71 60 297 269 266 282 304 350 18 11 29 76 331 354 327 345 24 12 242 134 149 136 144 145 142 294 224 162 153 285 317 97 148 135 116 113 84 45
31 347 315 301 295 2 44 20 46 57 48 67 153 133 138 77 89 222 245 242 232 242 216 166 164 160 267 307 307 289 278 239 204 216 311 80 69 93 130 156 211 240 187 240 263 264 291 146 175 175 178 241 256 239
317 355 9 301 18 6 86 65 59 62 98 166 107 35 54 106 159 198 200 215 208 207 297 294 212 226 275 297 329 33 4 10 71 97 57 51 50 41 21 3 355 358 302 244 261 310 246 170 194 234 178 159 342 7
318 305 340 356 354 41 50 76 125 280 179 125 104 93 106 85 161 190 216 200 160 202 275 279 303 133 92 72 52 52 42 35 65 66 63 39 11 359 352 346 349 312 262 268 290 221 265 157 114 50 53 124 112 79
262 36 30 9 13 47 334 131 133 353 56 132 127 87 57 81 199 182 148 169 204 225 242 247 167 122 116 99 89 59 39 61 70 92 84 49 352 309 339 343 345 346 350 97 78 5 25 57 68 70 67 71 73 63
52 319 212 136 67 50 78 81 52 49 43 49 53 88 131 175 234 220 208 219 191 160 115 85 78 99 121 136 126 106 66 12 64 61 68 53 28 7 337 333 337 337 354 44 80 74 74 60 59 59 59 63 73 90
285 46 95 85 75 62 57 55 40 52 28 55 52 59 39 51 29 336 323 93 79 86 116 112 101 106 132 127 128 114 123 118 101 90 75 51 14 358 360 356 353 355 21 54 63 76 80 78 73 70 68 61 53 41
4 59 62 61 56 71 251 132 138 105 73 151 198 175 184 161 174 229 315 112 137 141 144 142 140 136 149 140 139 134 131 137 143 127 117 110 71 40 27 8 6 27 36 49 43 55 63 71 72 74 76 66 52 33